CW4199 Weather Reports


time (UTC)temp
C
wind
direction
speed
KPH
gust
KPH
rain 1hr
cm
rain 24hr
cm
rain mn
cm
humidity
%
barometer
mb
20260906035404 26 87 0.0 0.0 0.00 0.00 0.00 80 1011.6
20260906034403 26 87 0.0 0.0 0.00 0.00 0.00 79 1011.5
20260906033403 27 87 0.0 0.0 0.00 0.00 0.00 78 1011.5
20260906032403 27 87 0.0 1.6 0.00 0.00 0.00 77 1011.6
20260906031404 27 87 0.0 0.0 0.00 0.00 0.00 76 1011.4
20260906030425 27 87 0.0 0.0 0.00 0.00 0.00 76 1011.3
20260906025403 27 87 0.0 0.0 0.00 0.00 0.00 75 1011.3
20260906024404 27 87 0.0 0.0 0.00 0.00 0.00 74 1011.2
20260906023425 28 87 0.0 0.0 0.00 0.00 0.00 73 1011.2
20260906022404 28 87 0.0 0.0 0.00 0.00 0.00 72 1011.2
20260906021403 28 87 0.0 0.0 0.00 0.00 0.00 72 1011.2
20260906020404 28 87 0.0 0.0 0.00 0.00 0.00 71 1011.0
20260906015424 28 87 0.0 0.0 0.00 0.00 0.00 71 1011.0
20260906014404 29 87 0.0 0.0 0.00 0.00 0.00 69 1010.9
20260906013403 29 87 0.0 1.6 0.00 0.00 0.00 68 1010.7
20260906012404 29 87 0.0 3.2 0.00 0.00 0.00 67 1010.6
20260906011404 30 87 1.6 3.2 0.00 0.00 0.00 66 1010.6
20260906010403 30 87 0.0 3.2 0.00 0.00 0.00 63 1010.5
20260906005404 31 87 0.0 4.8 0.00 0.00 0.00 61 1010.5
20260906004403 32 87 1.6 4.8 0.00 0.00 0.00 59 1010.4
20260906003404 32 87 1.6 4.8 0.00 0.00 0.00 57 1010.2
20260906002404 33 87 3.2 6.4 0.00 0.00 0.00 56 1010.3
20260906001424 33 86 3.2 8.0 0.00 0.00 0.00 54 1010.3
20260906000403 33 87 3.2 6.4 0.00 0.00 0.00 53 1010.3
20260905235403 34 87 3.2 4.8 0.00 0.00 0.00 52 1010.4
20260905234424 34 87 1.6 6.4 0.00 0.00 0.00 50 1010.5
20260905233404 35 86 3.2 4.8 0.00 0.00 0.00 48 1010.6
20260905232403 35 85 3.2 6.4 0.00 0.00 0.00 48 1010.6
20260905231404 35 80 3.2 8.0 0.00 0.00 0.00 46 1010.6
20260905230404 35 77 1.6 9.7 0.00 0.00 0.00 45 1010.6
20260905225403 36 92 3.2 6.4 0.00 0.00 0.00 44 1010.5
20260905224404 36 147 4.8 8.0 0.00 0.00 0.00 44 1010.5
20260905223403 36 146 1.6 6.4 0.00 0.00 0.00 43 1010.6
20260905222446 36 99 4.8 12.9 0.00 0.00 0.00 44 1010.6
20260905221404 37 101 8.0 17.7 0.00 0.00 0.00 44 1010.6
20260905220424 36 169 3.2 8.0 0.00 0.00 0.00 43 1010.7
20260905215403 36 175 3.2 9.7 0.00 0.00 0.00 43 1010.7
20260905214403 37 84 3.2 12.9 0.00 0.00 0.00 40 1010.8
20260905213403 37 26 4.8 12.9 0.00 0.00 0.00 41 1010.8
20260905212404 37 65 8.0 14.5 0.00 0.00 0.00 42 1010.9
20260905211403 37 27 4.8 16.1 0.00 0.00 0.00 43 1010.8
20260905210404 37 39 4.8 6.4 0.00 0.00 0.00 43 1010.8
20260905205403 37 35 4.8 11.3 0.00 0.00 0.00 45 1010.7
20260905204403 37 100 8.0 14.5 0.00 0.00 0.00 41 1010.9
20260905203425 37 91 1.6 9.7 0.00 0.00 0.00 44 1011.2
20260905202404 37 241 4.8 12.9 0.00 0.00 0.00 46 1011.2
20260905201403 37 110 4.8 14.5 0.00 0.00 0.00 41 1011.4
20260905200404 36 124 3.2 14.5 0.00 0.00 0.00 44 1011.5
20260905195403 36 98 8.0 12.9 0.00 0.00 0.00 46 1011.9
20260905193424 37 134 8.0 14.5 0.00 0.00 0.00 45 1012.1
20260905192404 37 121 4.8 17.7 0.00 0.00 0.00 47 1012.3
20260905191403 37 54 8.0 16.1 0.00 0.00 0.00 46 1012.6
20260905190404 37 63 6.4 17.7 0.00 0.00 0.00 44 1012.7
20260905185403 37 105 12.9 19.3 0.00 0.00 0.00 43 1012.8
20260905184404 37 72 4.8 16.1 0.00 0.00 0.00 44 1012.7
20260905183425 37 59 9.7 14.5 0.00 0.00 0.00 47 1012.9
20260905182403 36 55 8.0 17.7 0.00 0.00 0.00 47 1013.1
20260905181403 36 92 12.9 19.3 0.00 0.00 0.00 47 1012.9
20260905180425 36 358 8.0 20.9 0.00 0.00 0.00 48 1013.0
20260905175403 36 65 6.4 16.1 0.00 0.00 0.00 49 1013.1
20260905174424 36 199 3.2 16.1 0.00 0.00 0.00 53 1013.1
20260905173404 36 156 6.4 12.9 0.00 0.00 0.00 51 1013.3
20260905172403 35 116 4.8 12.9 0.00 0.00 0.00 51 1013.4
20260905171404 35 23 3.2 14.5 0.00 0.00 0.00 50 1013.4
20260905170403 35 150 4.8 12.9 0.00 0.00 0.00 53 1013.8
20260905165403 35 182 6.4 11.3 0.00 0.00 0.00 53 1013.9
20260905164404 35 153 8.0 12.9 0.00 0.00 0.00 54 1014.0
20260905163403 35 86 8.0 12.9 0.00 0.00 0.00 55 1014.1
20260905162403 35 66 3.2 11.3 0.00 0.00 0.00 55 1014.2
20260905161403 34 194 1.6 8.0 0.00 0.00 0.00 56 1014.2
20260905160403 34 135 4.8 11.3 0.00 0.00 0.00 56 1014.2
20260905155404 34 313 3.2 6.4 0.00 0.00 0.00 56 1014.3
20260905154403 33 210 4.8 6.4 0.00 0.00 0.00 58 1014.3
20260905153404 33 280 3.2 4.8 0.00 0.00 0.00 57 1014.4
20260905152403 33 203 3.2 6.4 0.00 0.00 0.00 59 1014.4
20260905151403 33 201 4.8 8.0 0.00 0.00 0.00 63 1014.3
20260905150403 32 129 3.2 6.4 0.00 0.00 0.00 65 1014.5
20260905145403 31 146 1.6 6.4 0.00 0.00 0.00 66 1014.3
20260905144425 31 149 1.6 4.8 0.00 0.00 0.00 65 1014.4
20260905143403 31 149 1.6 4.8 0.00 0.00 0.00 64 1014.3
20260905142403 31 139 3.2 4.8 0.00 0.00 0.00 65 1014.3
20260905141404 31 153 4.8 6.4 0.00 0.00 0.00 70 1014.3
20260905140403 30 169 1.6 6.4 0.00 0.00 0.00 72 1014.2
20260905135403 29 169 3.2 6.4 0.00 0.00 0.00 74 1014.3
20260905134404 29 169 1.6 3.2 0.00 0.00 0.00 76 1014.3
20260905133403 28 169 1.6 6.4 0.00 0.00 0.00 78 1014.4
20260905132403 27 169 3.2 6.4 0.00 0.00 0.00 78 1014.2
20260905131425 27 169 3.2 6.4 0.00 0.00 0.00 81 1014.4
20260905130403 26 169 3.2 6.4 0.00 0.00 0.00 82 1014.3
20260905125445 25 169 3.2 6.4 0.00 0.00 0.00 85 1014.1
20260905124403 25 169 3.2 11.3 0.00 0.00 0.00 87 1014.3
20260905123403 23 116 1.6 4.8 0.00 0.00 0.00 89 1014.1
20260905122404 23 115 0.0 0.0 0.00 0.00 0.00 90 1014.1
20260905121403 23 115 0.0 1.6 0.00 0.00 0.00 90 1014.0
20260905120404 23 115 0.0 3.2 0.00 0.00 0.00 90 1014.0
20260905115403 23 115 1.6 3.2 0.00 0.00 0.00 91 1013.7
20260905114403 23 115 0.0 1.6 0.00 0.00 0.00 91 1013.7
20260905113404 23 115 0.0 3.2 0.00 0.00 0.00 91 1013.6
20260905112403 23 115 0.0 0.0 0.00 0.00 0.00 91 1013.5
20260905111403 22 115 0.0 0.0 0.00 0.00 0.00 91 1013.5
20260905110404 23 115 0.0 0.0 0.00 0.00 0.00 91 1013.4
20260905105403 23 115 0.0 0.0 0.00 0.00 0.00 91 1013.4
20260905104403 23 115 0.0 0.0 0.00 0.00 0.00 91 1013.4
20260905103403 23 115 0.0 0.0 0.00 0.00 0.00 91 1013.3
20260905102403 23 115 0.0 0.0 0.00 0.00 0.00 91 1013.5
20260905101403 23 115 0.0 1.6 0.00 0.00 0.00 91 1013.4
20260905100403 23 115 0.0 0.0 0.00 0.00 0.00 90 1013.5
20260905095445 23 115 0.0 3.2 0.00 0.00 0.00 90 1013.3
20260905094403 23 115 0.0 1.6 0.00 0.00 0.00 90 1013.4
20260905093403 23 115 0.0 0.0 0.00 0.00 0.00 90 1013.3
20260905092424 23 115 0.0 3.2 0.00 0.00 0.00 90 1013.2
20260905091403 23 115 0.0 1.6 0.00 0.00 0.00 90 1013.1
20260905090424 23 115 0.0 0.0 0.00 0.00 0.00 89 1013.0
20260905085403 23 115 0.0 0.0 0.00 0.00 0.00 90 1013.1
20260905084403 23 115 0.0 1.6 0.00 0.00 0.00 90 1013.0
20260905083403 23 115 0.0 1.6 0.00 0.00 0.00 89 1013.1
20260905082403 23 115 0.0 3.2 0.00 0.00 0.00 89 1013.2
20260905081403 23 115 0.0 1.6 0.00 0.00 0.00 89 1013.1
20260905080403 23 115 0.0 0.0 0.00 0.00 0.00 89 1013.2
20260905075403 23 115 0.0 0.0 0.00 0.00 0.00 89 1013.0
20260905074403 23 115 0.0 1.6 0.00 0.00 0.00 89 1013.1
20260905073403 23 115 1.6 3.2 0.00 0.00 0.00 88 1013.1
20260905072403 23 115 0.0 0.0 0.00 0.00 0.00 88 1013.2
20260905071403 24 115 0.0 3.2 0.00 0.00 0.00 88 1013.1
20260905070403 24 115 0.0 1.6 0.00 0.00 0.00 87 1013.3
20260905065403 24 115 0.0 0.0 0.00 0.00 0.00 87 1013.2
20260905064403 24 115 0.0 1.6 0.00 0.00 0.00 87 1013.0
20260905063403 24 115 0.0 3.2 0.00 0.00 0.00 86 1013.3
20260905062403 25 115 0.0 1.6 0.00 0.00 0.00 86 1013.1
20260905061424 25 115 0.0 0.0 0.00 0.00 0.00 86 1013.1
20260905060403 25 115 0.0 0.0 0.00 0.00 0.00 86 1013.2
20260905055403 25 115 0.0 1.6 0.00 0.00 0.00 85 1013.2
20260905054403 25 115 1.6 3.2 0.00 0.00 0.00 85 1013.5
20260905053403 25 115 0.0 3.2 0.00 0.00 0.00 84 1013.3
20260905052403 25 115 0.0 0.0 0.00 0.00 0.00 83 1013.5
20260905051403 25 115 0.0 3.2 0.00 0.00 0.00 82 1013.5
20260905050403 26 115 0.0 1.6 0.00 0.00 0.00 82 1013.6
20260905045403 26 115 0.0 1.6 0.00 0.00 0.00 81 1013.7
20260905044403 26 115 1.6 4.8 0.00 0.00 0.00 81 1013.7
20260905043403 26 115 0.0 0.0 0.00 0.00 0.00 80 1013.6
20260905042403 26 115 0.0 3.2 0.00 0.00 0.00 79 1013.7
20260905041402 26 115 0.0 3.2 0.00 0.00 0.00 79 1013.8
20260905040403 27 115 0.0 1.6 0.00 0.00 0.00 77 1013.7